User: anonymous   Login
Location: Lower Kingswood
(51.2667°N, 0.2167°W)
Time: 22:39:49
(UTC+00:00)
Language:

NOSS 7 (E) - Orbit

View from above orbital plane
View from above orbital plane
View from above satellite
View from above satellite

Ground track
Ground track

The orbit data is extracted from the following two-line orbital elements,

1 16624U 86014E   24055.60803125  .00010680  00000-0  89319-3 0  9997
2 16624  63.2960 241.2521 0881913 100.5871 269.5626 13.57944359233707
Epoch (UTC): 24 February 2024 14:35:33
Eccentricity: 0.0881913
inclination: 63.2960°
perigee height: 388 km
apogee height: 1697 km
right ascension of ascending node: 241.2521°
argument of perigee: 100.5871°
revolutions per day: 13.57944359
mean anomaly at epoch: 269.5626°
orbit number at epoch: 23370

The dashed part of the orbit path shows where the satellite is in the earth's shadow,  

DLR